Regional Weather Roundup
Issued by NWS

Home | Current Version | Previous Version | Graphics & Text | Print | Product List | Glossary On
Versions: 1 2 3 4 5 6 7 8 9 10 11 12 13 14 15 16 17 18 19 20 21 22 23 24 25 26 27 28 29 30 31 32 33 34 35 36 37 38 39 40 41 42 43 44 45 46 47 48 49 50
648
ASUS43 KBIS 301310
RWRND

NORTH DAKOTA REGIONAL WEATHER ROUNDUP
NATIONAL WEATHER SERVICE BISMARCK ND
800 AM CDT SAT JUL 30 2016

NOTE: "FAIR" INDICATES FEW OR NO CLOUDS BELOW 12,000 FEET WITH NO
SIGNIFICANT WEATHER AND/OR OBSTRUCTIONS TO VISIBILITY.


NDZ001>003-009>011-017-301400-
NORTHWEST NORTH DAKOTA

CITY           SKY/WX    TMP DP  RH WIND       PRES   REMARKS
WILLISTON      SUNNY     61  55  81 CALM      29.91R
MINOT          SUNNY     68  61  78 S9        29.90R
$$

NDZ018>021-031>035-040>046-301400-
SOUTHWEST NORTH DAKOTA

CITY           SKY/WX    TMP DP  RH WIND       PRES   REMARKS
BISMARCK       CLOUDY    64  63  96 E12       29.94R
DICKINSON      PTSUNNY   55  55 100 CALM      29.91S FOG
GARRISON         N/A     65  61  87 SE3       29.91S
HETTINGER ARPT SUNNY     60  56  86 CALM      29.94S
$$

NDZ004>008-012>016-024-026-027-054-301400-
NORTHEAST NORTH DAKOTA

CITY           SKY/WX    TMP DP  RH WIND       PRES   REMARKS
GRAND FORKS    PTSUNNY   67  62  84 SE9       29.96R
DEVILS LAKE    SUNNY     67  61  81 SW12      29.94R
$$

NDZ022-023-025-028>030-036>039-047>053-301400-
SOUTHEAST NORTH DAKOTA

CITY           SKY/WX    TMP DP  RH WIND       PRES   REMARKS
FARGO          SUNNY     68  60  75 S8        29.98R
JAMESTOWN      CLOUDY    64  60  87 S8        29.95S
$$





USA.gov is the U.S. government's official web portal to all federal, state and local government web resources and services.